[[{"header":{"parameterUnit":"m.s-1","parameterCategory":1,"la1":30.2991,"la2":30.254,"lo1":-89.0895,"lo2":-89.0444,"dy":0.0017,"dx":0.0017,"nx":28,"ny":28,"refTime":"2023-10-09T21:00:00:Z","depth":0,"parameterNumber":2,"parameterNumberName":"U-component_of_WINDS"},"data":[0,0,0,0,0,0,0,0,0,0,0,0,0,0,0,0,0,0,0,0,0,0,0,0,0,0,0,0,0,0,0,0,0,0,0,0,0,0,0,0,0,0,0,0,0,0,0,0,0,0,0,0,0,0,0,0,0,0,-3.8147,-3.8146,0,-3.8132,-3.8131,-3.8131,-3.7962,-3.7958,-3.7953,-3.7949,-3.7936,-3.794,-3.7943,0,0,0,0,0,0,0,0,0,0,0,0,0,-3.8031,-3.8034,-3.8147,-3.8146,-3.8146,-3.8132,-3.8131,-3.8131,-3.7963,-3.7957,-3.7952,-3.7947,-3.7935,-3.7939,-3.7944,0,0,0,0,0,0,0,0,0,0,0,0,0,-3.8055,-3.8035,-3.8147,-3.806,-3.8052,-3.8132,-3.8131,-3.8131,-3.7964,-3.7957,-3.7951,-3.7945,-3.7934,-3.7939,-3.7944,-3.8106,0,0,-3.7961,-3.7963,0,0,0,0,0,0,0,0,-3.8054,-3.806,-3.8073,-3.8066,-3.8058,-3.8042,-3.8085,-3.8123,-3.7965,-3.7998,-3.7949,-3.7942,-3.7977,-3.7978,-3.7989,-3.8105,-3.8105,-3.7961,-3.7965,-3.7967,-3.7968,0,0,0,0,0,0,0,-3.8053,-3.8059,-3.8141,-3.8074,-3.8064,-3.8023,-3.8019,-3.8092,-3.8023,-3.7994,-3.7982,-3.7982,-3.7971,-3.7985,-3.7988,-3.8104,-3.7961,-3.7966,-3.7969,-3.7971,-3.8353,-3.836,0,0,0,0,0,0,-3.8063,-3.8059,-3.8141,-3.814,-3.804,-3.803,-3.8026,-3.8054,-3.8022,-3.8011,-3.7988,-3.7974,-3.7979,-3.7982,-3.7987,-3.8176,-3.7967,-3.7972,-3.7975,-3.8347,-3.8355,-3.8362,0,0,0,0,0,0,-3.8061,-3.8072,-3.8142,-3.8096,-3.8102,-3.8039,-3.8071,-3.8057,-3.807,-3.8017,-3.8004,-3.8014,-3.7974,-3.7979,-3.8078,-3.8173,-3.7974,-3.7979,-3.8338,-3.8349,-3.8359,-3.8555,0,0,0,0,0,0,-3.8058,-3.8072,-3.8132,-3.8099,-3.8105,-3.8233,-3.8077,-3.8061,-3.8079,-3.8062,-3.8038,-3.8028,-3.7969,-3.8071,-3.8083,-3.8177,-3.7984,-3.833,-3.8343,-3.8355,-3.854,-3.8571,-3.8597,0,0,0,0,0,-3.8055,-3.8188,-3.8136,-3.8147,-3.8179,-3.8239,-3.8242,-3.8171,-3.8088,-3.8149,-3.8115,-3.8029,-3.816,-3.8082,-3.8095,-3.8192,-3.8323,-3.8339,-3.8354,-3.8527,-3.8565,-3.8596,0,0,0,0,0,0,-3.8235,-3.8182,-3.8124,-3.8251,-3.8251,-3.821,-3.8285,-3.8213,-3.8237,-3.822,-3.813,-3.8126,-3.8239,-3.8224,-3.8139,-3.8347,-3.8227,-3.8246,-3.8354,-3.8389,-3.8417,-3.842,-3.7988,0,0,0,0,0,-3.829,-3.8342,-3.8293,-3.8409,-3.8412,-3.8349,-3.8372,-3.8317,-3.8313,-3.8313,-3.8286,-3.8286,-3.8327,-3.8356,-3.8391,-3.8535,-3.8529,-3.8608,-3.8637,-3.8661,-3.8679,-3.8757,-3.8792,-3.8413,-3.8413,-3.8413,0,0,-3.8403,-3.8381,-3.8419,-3.8445,-3.8438,-3.8496,-3.835,-3.8416,-3.8458,-3.8323,-3.8415,-3.8395,-3.839,-3.8513,-3.8565,-3.8504,-3.8782,-3.868,-3.87,-3.8705,-3.8776,-3.8812,-3.8844,-3.8424,-3.8422,-3.842,0,0,-3.864,-3.8627,-3.8724,-3.872,-3.8712,-3.8668,-3.8692,-3.8662,-3.8644,-3.8735,-3.8635,-3.8683,-3.8755,-3.8756,-3.8766,-3.9003,-3.8926,-3.9016,-3.9168,-3.9244,-3.9274,-3.93,-3.9388,-3.942,-3.9034,-3.9035,-3.9035,0,-3.8783,-3.8865,-3.8783,-3.8857,-3.8872,-3.875,-3.8848,-3.8848,-3.8853,-3.8866,-3.8796,-3.8885,-3.8873,-3.8995,-3.9053,-3.9064,-3.909,-3.902,-3.9276,-3.9302,-3.9325,-3.9407,-3.944,-3.9046,-3.9045,-3.9043,-3.9042,0,-3.9042,-3.91,-3.9179,-3.9186,-3.9209,-3.9295,-3.9227,-3.9261,-3.9203,-3.9168,-3.9262,-3.9243,-3.9272,-3.9296,-3.924,-3.9412,-3.9374,-3.9292,-3.917,-3.9374,-3.945,-3.9481,-3.9062,-3.9058,-3.9055,-3.9052,0,0,-3.9395,-3.9355,-3.9386,-3.9388,-3.9369,-3.9413,-3.9493,-3.9521,-3.9553,-3.9559,-3.9626,-3.9689,-3.9613,-3.9625,-3.9568,-3.9634,-3.9827,-3.9544,-3.9542,-3.96,-4.0017,-4.0082,-4.012,-3.9774,-3.978,-3.9784,-4.0019,0,-3.9626,-3.9761,-3.969,-3.9834,-3.9888,-3.9773,-3.9843,-3.984,-3.9809,-3.985,-3.9814,-3.9863,-3.9757,-3.9764,-3.9824,-3.9791,-3.991,-3.9772,-3.9838,-3.9841,-3.9847,-4.0159,-4.0227,-4.045,-4.0048,-4.0053,-4.0056,0,-3.9914,-3.9933,-4.0084,-4.0056,-4.0075,-4.014,-4.0161,-4.0201,-4.0195,-4.0167,-4.0181,-4.0108,-4.0185,-4.0062,-4.0168,-4.0077,-4.0098,-4.0086,-4.0093,-4.0099,-3.9964,-4.0178,-4.0519,-4.0554,-4.0102,-4.0098,-4.0095,0,-4.0162,-4.0224,-4.0322,-4.0327,-4.0296,-4.0344,-4.0334,-4.0321,-4.0343,-4.0361,-4.0375,-4.0401,-4.0417,-4.044,-4.0377,-4.0292,-4.0494,-4.0364,-4.0475,-4.0477,-4.0526,-4.0525,-4.088,-4.0534,-4.0534,-4.0533,-4.0533,0,-4.0429,-4.0527,-4.0433,-4.0494,-4.06,-4.0516,-4.0624,-4.0601,-4.0591,-4.0646,-4.0546,-4.0601,-4.0512,-4.0558,-4.0508,-4.0606,-4.0613,-4.0594,-4.0581,-4.0605,-4.0608,-4.0621,-4.0606,-4.0542,-4.054,-4.0538,-4.0537,0,-4.0725,-4.0665,-4.0766,-4.0728,-4.0721,-4.0801,-4.0769,-4.0824,-4.0785,-4.0856,-4.0868,-4.0808,-4.0856,-4.0794,-4.0837,-4.0804,-4.0938,-4.0899,-4.0941,-4.0931,-4.1047,-4.1038,-4.1426,-4.1474,-4.1095,-4.1099,-4.1102,0,-4.0902,-4.0974,-4.0944,-4.0973,-4.0969,-4.1018,-4.1039,-4.0959,-4.0986,-4.0985,-4.1041,-4.1081,-4.1109,-4.1192,-4.1153,-4.1185,-4.1149,-4.1282,-4.1153,-4.1177,-4.1155,-4.1153,-4.1161,-4.131,-4.1315,-4.1318,-4.1321,0,-4.1223,-4.119,-4.1225,-4.125,-4.1279,-4.1295,-4.1304,-4.1334,-4.125,-4.1286,-4.1334,-4.1356,-4.1399,-4.1441,-4.1462,-4.1451,-4.1375,-4.1362,-4.139,-4.1418,-4.144,-4.1433,-4.1017,-4.1354,-4.1351,-4.1348,-4.1347,-4.1345,-4.1466,-4.1526,-4.1515,-4.1557,-4.1555,-4.1566,-4.1616,-4.1583,-4.1622,-4.1651,-4.1601,-4.1663,-4.1655,-4.1676,-4.1674,-4.1722,-4.1664,-4.1704,-4.1715,-4.1727,-4.1746,-4.143,-4.1725,-4.1724,-4.1723,-4.1722,-4.1721,0,-4.1785,-4.1772,-4.1812,-4.1827,-4.1861,-4.1782,-4.1788,-4.1822,-4.1878,-4.1876,-4.1906,-4.1962,-4.2002,-4.1965,-4.1998,-4.2043,-4.2009,-4.2055,-4.2053,-4.2052,-4.1794,-4.1768,-4.2083,-4.2083,-4.2083,-4.2083,-4.2082,-4.2082,-4.1956,-4.2053,-4.2019,-4.2115,-4.21,-4.2159,-4.217,-4.2179,-4.2178,-4.2245,-4.2278,-4.2253,-4.2238,-4.2269,-4.2302,-4.229,-4.2309,-4.2369,-4.2345,-4.2105,-4.207,-4.2036,-4.2012,-4.2372,-4.2373,-4.2599,-4.2601,-4.2603]},{"header":{"parameterUnit":"m.s-1","parameterCategory":1,"la1":30.2991,"la2":30.254,"lo1":-89.0895,"lo2":-89.0444,"dy":0.0017,"dx":0.0017,"nx":28,"ny":28,"refTime":"2023-10-09T21:00:00:Z","depth":0,"parameterNumber":3,"parameterNumberName":"V-component_of_WINDS"},"data":[0,0,0,0,0,0,0,0,0,0,0,0,0,0,0,0,0,0,0,0,0,0,0,0,0,0,0,0,0,0,0,0,0,0,0,0,0,0,0,0,0,0,0,0,0,0,0,0,0,0,0,0,0,0,0,0,0,0,-3.4416,-3.4415,0,-3.4369,-3.4369,-3.4368,-3.4323,-3.4322,-3.4321,-3.4321,-3.4271,-3.427,-3.4269,0,0,0,0,0,0,0,0,0,0,0,0,0,-3.4463,-3.4462,-3.4416,-3.4415,-3.4415,-3.4369,-3.4369,-3.4368,-3.4323,-3.4322,-3.4321,-3.4321,-3.4271,-3.427,-3.4269,0,0,0,0,0,0,0,0,0,0,0,0,0,-3.4432,-3.4462,-3.4416,-3.4387,-3.4384,-3.4369,-3.4369,-3.4368,-3.4323,-3.4322,-3.4321,-3.432,-3.4271,-3.427,-3.4269,-3.4279,0,0,-3.4266,-3.4265,0,0,0,0,0,0,0,0,-3.4434,-3.443,-3.4392,-3.4389,-3.4385,-3.4351,-3.4367,-3.4338,-3.4323,-3.4346,-3.4321,-3.432,-3.4298,-3.4295,-3.4288,-3.4277,-3.4275,-3.4265,-3.4265,-3.4264,-3.4264,0,0,0,0,0,0,0,-3.4436,-3.4432,-3.4397,-3.4391,-3.4387,-3.4375,-3.437,-3.4361,-3.4327,-3.4344,-3.434,-3.4336,-3.4296,-3.4289,-3.4286,-3.4274,-3.4265,-3.4264,-3.4264,-3.4263,-3.4268,-3.4269,0,0,0,0,0,0,-3.4443,-3.4434,-3.4399,-3.4396,-3.4408,-3.4375,-3.4369,-3.4363,-3.4327,-3.4321,-3.4336,-3.4334,-3.4291,-3.4288,-3.4284,-3.4293,-3.4264,-3.4263,-3.4262,-3.4267,-3.4268,-3.4269,0,0,0,0,0,0,-3.4444,-3.444,-3.4401,-3.4414,-3.4408,-3.4375,-3.4368,-3.4362,-3.4355,-3.4322,-3.4315,-3.4336,-3.4291,-3.4286,-3.4281,-3.4291,-3.4263,-3.4262,-3.4266,-3.4267,-3.4268,-3.4312,0,0,0,0,0,0,-3.4446,-3.4441,-3.4446,-3.4415,-3.4408,-3.4399,-3.4369,-3.4362,-3.4353,-3.4349,-3.4319,-3.4313,-3.429,-3.4283,-3.428,-3.4289,-3.4261,-3.4265,-3.4267,-3.4268,-3.4309,-3.4314,-3.4319,0,0,0,0,0,-3.4448,-3.446,-3.4446,-3.4442,-3.4413,-3.44,-3.4396,-3.4369,-3.4355,-3.4358,-3.4336,-3.4314,-3.429,-3.4283,-3.4279,-3.4288,-3.4264,-3.4266,-3.4268,-3.4307,-3.4313,-3.4319,0,0,0,0,0,0,-3.4492,-3.4455,-3.444,-3.4442,-3.4425,-3.4392,-3.4396,-3.4376,-3.4362,-3.4359,-3.4325,-3.4319,-3.4317,-3.4301,-3.4294,-3.4295,-3.4274,-3.4275,-3.4305,-3.4311,-3.4315,-3.4319,-3.426,0,0,0,0,0,-3.4502,-3.4496,-3.4463,-3.4469,-3.4461,-3.443,-3.4423,-3.4404,-3.4384,-3.4376,-3.4354,-3.4335,-3.4323,-3.4316,-3.4303,-3.4307,-3.4299,-3.431,-3.4315,-3.4319,-3.4321,-3.432,-3.4325,-3.4275,-3.4275,-3.4275,0,0,-3.4523,-3.4502,-3.45,-3.4477,-3.4461,-3.4454,-3.4424,-3.4418,-3.4413,-3.4375,-3.4369,-3.4352,-3.4328,-3.4327,-3.4326,-3.4314,-3.4332,-3.4322,-3.4325,-3.4324,-3.4322,-3.4327,-3.4331,-3.4276,-3.4276,-3.4276,0,0,-3.4558,-3.4542,-3.4544,-3.4528,-3.4505,-3.4484,-3.4485,-3.4455,-3.4442,-3.4436,-3.4407,-3.4399,-3.4379,-3.4363,-3.4352,-3.4379,-3.4358,-3.4376,-3.44,-3.44,-3.4404,-3.4407,-3.4416,-3.442,-3.4377,-3.4377,-3.4377,0,-3.4587,-3.4576,-3.4547,-3.4543,-3.4533,-3.4499,-3.45,-3.4486,-3.446,-3.4453,-3.4441,-3.4414,-3.4396,-3.439,-3.4396,-3.4389,-3.4387,-3.4379,-3.4406,-3.4409,-3.4411,-3.4419,-3.4423,-3.4379,-3.4379,-3.4379,-3.4379,0,-3.4612,-3.4605,-3.461,-3.4585,-3.4575,-3.4574,-3.4544,-3.4537,-3.4518,-3.4498,-3.4491,-3.4467,-3.4449,-3.4446,-3.4427,-3.4436,-3.443,-3.4412,-3.4391,-3.4419,-3.4426,-3.4429,-3.4383,-3.4382,-3.4381,-3.4381,0,0,-3.4675,-3.4633,-3.4636,-3.4623,-3.4594,-3.4588,-3.4584,-3.4566,-3.4561,-3.4543,-3.4538,-3.4521,-3.4504,-3.4492,-3.447,-3.447,-3.4491,-3.4452,-3.4451,-3.446,-3.4499,-3.4513,-3.4517,-3.4477,-3.4477,-3.4478,-3.4501,0,-3.4704,-3.4697,-3.467,-3.467,-3.4662,-3.4629,-3.4625,-3.4606,-3.4587,-3.4577,-3.4555,-3.4544,-3.4522,-3.4514,-3.4513,-3.449,-3.4499,-3.4487,-3.4471,-3.4471,-3.4478,-3.4521,-3.4536,-3.4559,-3.4504,-3.4504,-3.4504,0,-3.4738,-3.4723,-3.4722,-3.4692,-3.4688,-3.4686,-3.4666,-3.4657,-3.4634,-3.462,-3.4606,-3.4582,-3.4574,-3.4554,-3.4542,-3.4535,-3.4526,-3.4514,-3.4514,-3.4511,-3.449,-3.4519,-3.4566,-3.4569,-3.4508,-3.4508,-3.4508,0,-3.4783,-3.4762,-3.4759,-3.475,-3.4715,-3.4713,-3.4699,-3.4675,-3.4665,-3.4648,-3.4641,-3.4622,-3.4612,-3.4598,-3.4569,-3.4557,-3.456,-3.4538,-3.4547,-3.4548,-3.455,-3.455,-3.4596,-3.4545,-3.4545,-3.4544,-3.4544,0,-3.4819,-3.482,-3.4779,-3.4777,-3.4776,-3.4744,-3.4744,-3.4726,-3.4704,-3.4697,-3.4667,-3.466,-3.4623,-3.4611,-3.4588,-3.4581,-3.4577,-3.4565,-3.4559,-3.4567,-3.4569,-3.4561,-3.4559,-3.4545,-3.4545,-3.4545,-3.4545,0,-3.487,-3.4843,-3.4837,-3.4804,-3.4795,-3.4796,-3.4767,-3.4763,-3.4742,-3.4733,-3.4729,-3.4695,-3.468,-3.4649,-3.4626,-3.461,-3.4608,-3.4598,-3.4616,-3.4613,-3.4624,-3.4623,-3.4666,-3.4669,-3.4617,-3.4617,-3.4618,0,-3.4895,-3.4895,-3.4862,-3.4855,-3.4841,-3.4831,-3.4821,-3.4789,-3.4779,-3.4752,-3.4751,-3.4734,-3.4718,-3.4695,-3.4668,-3.4649,-3.4637,-3.4654,-3.4634,-3.4643,-3.4637,-3.4637,-3.4636,-3.4658,-3.4659,-3.466,-3.466,0,-3.4941,-3.4927,-3.4915,-3.4897,-3.4886,-3.4871,-3.4853,-3.4849,-3.4812,-3.4803,-3.4788,-3.4776,-3.4751,-3.4734,-3.4711,-3.4694,-3.467,-3.4666,-3.4667,-3.4676,-3.4687,-3.4681,-3.4628,-3.4665,-3.4665,-3.4665,-3.4664,-3.4664,-3.4979,-3.4977,-3.4953,-3.494,-3.4923,-3.4908,-3.4902,-3.488,-3.4867,-3.4845,-3.4826,-3.4812,-3.4787,-3.4754,-3.4738,-3.4725,-3.4714,-3.4716,-3.4716,-3.4717,-3.472,-3.4689,-3.4721,-3.4721,-3.4721,-3.472,-3.472,0,-3.5024,-3.5007,-3.4995,-3.4971,-3.496,-3.494,-3.4919,-3.4911,-3.4899,-3.4878,-3.4863,-3.4845,-3.4827,-3.4798,-3.4778,-3.4773,-3.4761,-3.4769,-3.4768,-3.4765,-3.4732,-3.4733,-3.4778,-3.4778,-3.4778,-3.4778,-3.4778,-3.4778,-3.5046,-3.5041,-3.5024,-3.501,-3.4992,-3.4979,-3.4969,-3.4953,-3.4936,-3.4917,-3.4903,-3.4884,-3.4859,-3.4836,-3.4819,-3.481,-3.4804,-3.4814,-3.4802,-3.4773,-3.4767,-3.4762,-3.4763,-3.4813,-3.4813,-3.4836,-3.4836,-3.4836]}]]